DECAYED

STARLINK-1971, 47572 (Decayed)

Orbit data source: Space-Track

STARLINK-1971, 47572 was a payload satellite owned by SpaceX/Seattle (US) in LEO that was launched on Thu, 04 Feb 2021 UTC via an FALCON 9 launch vehicle from the Air Force Eastern Test Range (AFETR). Payload-class satellites include a variety of spacecraft equipped with specific instruments for various scientific and technological missions. These include communications satellites like Starlink; space stations such as the ISS; scientific satellites like the Hubble; Earth observation satellites from companies like Planet Labs, Umbra, and HawkEye 360; GPS; miniature CubeSats for education and research; and military/defense satellites.

Not visible in the next 10 days
Identifier
47572, 2021-009AA
Orbit
Decayed
Country
Flag of USUS
Related business
Manufacturer
SpaceX/Seattle
Mission
Decayed Commercial Communications
Bus & Motor
STARLINK, Unknown motor
Mass
260 kg wet, ~248 kg dry
Launch date (UTC)
2021-02-04 (5 years ago)
Launch vehicle
FALCON 9
Launch site
Air Force Eastern Test Range (AFETR)
Object type
Payload
Rocket body
Debris
Shape & HBR
Box + 1 Pan, 10.1 m
Radar Cross Section
13.562 m², Large (>1 m²)

Expand to show TLE details & history
Last TLE update: 3 months ago

TLE from 3 months ago
0 STARLINK-1971
1 47572U 21009AA  26092.15890508  .11789308  12521-4  56255-3 0  9990
2 47572  53.0232 200.4664 0006922 316.1431  43.9066 16.42690585285393
Epoch: 2026-04-02T03:48Z
TLE epoch observation values (Epoch: 2026-04-02T03:48:49.398Z)
Latitude
-0.00005°
Longitude
-47.25086°
Altitude
156.324 km
Speed
7.816 km/s
True Right ascension
13h 21m 51s
True Declination
0° 00' 00"
Sunlit
Object was in full shadow at epoch
Visualization orbit readout
Latitude
Unknown
Longitude
Unknown
Altitude
Unknown
Speed
Unknown
Apparent Right ascension
Unknown
Apparent Declination
Unknown
Sunlit
N/A
Visualization observer readout
Local Sidereal Time
21:37:08
Azimuth
Unknown
Elevation
Unknown
Doppler factor
Unknown
Orbital elements
Apogee altitude
163.472 km
Perigee altitude
154.422 km
Semi-major axis
6,537.084 km
Eccentricity
0.00069
Inclination
53.0232°
RAAN
200.4664°
Arg. of periapsis
316.1431°
True anomaly
43.96164°
Mean anomaly
43.9066°
Eccentric anomaly
43.93412°
Mean motion
4.10646 °/min
Orbital period
87.67 mins
BSTAR
0.00056255
Loading maneuver chart data...
Computing Atmospheric mass density...

Documentation

Showing up to 5 results
|